Quantico, VA

9:34 PM EST on December 08, 2019 (GMT -0500)
Quantico Marine Corps Air Facility

Weather History for KNYG - October, 2019

Change the Weather History Date:

Thursday, October 24, 2019

  Actual Average Record
Temperature  
Mean Temperature 55 °F -  
Max Temperature 69 °F 62 °F 82 °F (2001)
Min Temperature 42 °F 43 °F 34 °F (2003)
Degree Days  
Heating Degree Days 10    
Growing Degree Days 5 (Base 50)    
Moisture  
Dew Point 47 °F    
Average Humidity 73    
Maximum Humidity 93    
Minimum Humidity 52    
Precipitation  
Precipitation 0.00 in - - ()
Sea Level Pressure  
Sea Level Pressure 30.32 in    
Wind  
Wind Speed 5 mph (West)    
Max Wind Speed 8 mph    
Max Gust Speed -    
Visibility 10 miles    
Events      
Averages and records for this station are not official NWS values.
T = Trace of Precipitation, MM = Missing Value Source: NWS Daily Summary

Daily Weather History Graph

Daily Weather History Graph

Search for Another Location

Airport or City:

Astronomy

Oct. 24, 2019 Rise Set
Actual Time 7:27 AM EDT 6:19 PM EDT
Civil Twilight 7:00 AM EDT 6:46 PM EDT
Nautical Twilight 6:29 AM EDT 7:17 PM EDT
Astronomical Twilight 5:58 AM EDT 7:47 PM EDT
Moon 2:59 AM EDT (10/24) 4:41 PM EDT (10/24)
Length of Visible Light 11h 46m
Length of Day
10h 52m
Waning Crescent, 17% of the Moon is Illuminated
Oct 24
Waning Crescent
Oct 27
New
Nov 4
First Quarter
Nov 12
Full
Nov 19
Last Quarter

Hourly Weather History & Observations

Time (EDT) Temp. Windchill Dew Point Humidity Pressure Visibility Wind Dir Wind Speed Gust Speed Precip Events Conditions
1:56 AM - - - N/A% 30.27 in - North - - N/A   Unknown
2:56 AM - - - N/A% 30.28 in - North - - N/A   Unknown
3:56 AM - - - N/A% 30.28 in - North - - N/A   Unknown
5:56 AM 44.1 °F 42.5 °F 34.0 °F 68% 30.32 in 10.0 mi NNW 3.5 mph - N/A   Clear
6:56 AM 42.1 °F 40.2 °F 37.0 °F 82% 30.33 in 10.0 mi NNW 3.5 mph - N/A   Clear
7:56 AM 43.0 °F 39.5 °F 39.9 °F 89% 30.34 in 10.0 mi North 5.8 mph - N/A   Clear
8:56 AM 46.9 °F - 42.1 °F 83% 30.36 in 10.0 mi NNW 4.6 mph - N/A   Clear
9:56 AM 51.1 °F - 45.0 °F 80% 30.37 in 10.0 mi West 5.8 mph - N/A   Clear
10:56 AM 60.1 °F - 48.0 °F 64% 30.37 in 10.0 mi North 3.5 mph - N/A   Clear
11:56 AM 63.0 °F - 50.0 °F 63% 30.36 in 10.0 mi SW 5.8 mph - N/A   Clear
12:56 PM 64.9 °F - 50.0 °F 58% 30.34 in 10.0 mi WSW 6.9 mph - N/A   Clear
1:56 PM 66.0 °F - 48.9 °F 54% 30.31 in 10.0 mi SSE 3.5 mph - N/A   Unknown
2:56 PM 66.9 °F - 50.0 °F 54% 30.30 in 10.0 mi SSE 4.6 mph - N/A   Partly Cloudy
3:56 PM 68.0 °F - 50.0 °F 52% 30.29 in 10.0 mi SSE 6.9 mph - N/A   Clear
4:56 PM 66.9 °F - 51.1 °F 57% 30.29 in 10.0 mi SSE 8.1 mph - N/A   Clear
5:56 PM 64.9 °F - 52.0 °F 63% 30.29 in 10.0 mi SSW 3.5 mph - N/A   Clear
6:56 PM 60.1 °F - 51.1 °F 72% 30.30 in 10.0 mi Calm Calm - N/A   Clear
7:56 PM 57.0 °F - 51.1 °F 81% 30.31 in 10.0 mi West 3.5 mph - N/A   Clear
8:56 PM 53.1 °F - 50.0 °F 89% 30.31 in 10.0 mi West 5.8 mph - N/A   Clear
9:56 PM 52.0 °F - 50.0 °F 93% 30.33 in 10.0 mi WNW 5.8 mph - N/A   Clear
10:56 PM 51.1 °F - 48.9 °F 92% 30.34 in 10.0 mi WNW 5.8 mph - N/A   Clear
11:56 PM 50.0 °F - 48.0 °F 93% 30.33 in 10.0 mi WNW 3.5 mph - N/A   Clear